Location: Düngen
(52.0952°N, 10.0219°E)
Time: 05:40:20
(UTC+00:00)

SPOT 5 - Visible Passes

Search period start: 06 June 2026 00:00
Search period end: 16 June 2026 00:00
Orbit: 619 x 801 km, 98.0° (Epoch: 5 June)

Date Brightness Start Highest point End Pass type
(mag) Time Alt. Az. Time Alt. Az. Time Alt. Az.
6 Jun 6.0 20:43:47 10° W 20:44:06 10° W 20:44:25 10° WNW visible
8 Jun 5.7 20:34:28 10° WSW 20:36:22 12° W 20:38:19 10° WNW visible
10 Jun 5.6 20:26:02 10° WSW 20:28:38 14° W 20:31:19 10° NW visible
